Weather History for KHGR - July, 2013

Change the Weather History Date:

Wednesday, July 24, 2013

  Actual Average Record
Temperature  
Mean Temperature 74 °F 75 °F  
Max Temperature 80 °F 85 °F 101 °F (2010)
Min Temperature 68 °F 66 °F 56 °F (2007)
Degree Days  
Heating Degree Days 0 0  
Month to date heating degree days 0 0  
Since 1 June heating degree days 3 18  
Since 1 July heating degree days 0 0  
Cooling Degree Days 9 10  
Month to date cooling degree days 350 252  
Year to date cooling degree days 707 537  
Since 1 June cooling degree days 590 461  
Growing Degree Days 24 (Base 50)    
Moisture  
Dew Point 60 °F    
Average Humidity 65    
Maximum Humidity 84    
Minimum Humidity 45    
Precipitation  
Precipitation 0.00 in 0.12 in 0.31 in (2000)
Month to date precipitation 3.62 2.59  
Year to date precipitation 17.41 22.67  
Sea Level Pressure  
Sea Level Pressure 29.84 in    
Wind  
Wind Speed 9 mph (NW)    
Max Wind Speed 17 mph    
Max Gust Speed 21 mph    
Visibility 10 miles    
Events      
T = Trace of Precipitation, MM = Missing Value Source: NWS Daily Summary

Daily Weather History Graph

Daily Weather History Graph

Search for Another Location

Airport or City:

Trip Planner

Search our weather history database for the weather conditions in past years. The results will help you decide how hot, cold, wet, or windy it might be!

Date:

Astronomy

Jul. 24, 2013 Rise Set
Actual Time 6:03 AM EDT 8:31 PM EDT
Civil Twilight 5:32 AM EDT 9:02 PM EDT
Nautical Twilight 4:53 AM EDT 9:40 PM EDT
Astronomical Twilight 4:11 AM EDT 10:22 PM EDT
Moon 9:36 PM EDT (7/24) 8:20 AM EDT (7/24)
Length of Visible Light 15h 29m
Length of Day
14h 28m
Waning Gibbous, 95% of the Moon is Illuminated
Jul 24
Waning Gibbous
Jul 29
Last Quarter
Aug 6
New
Aug 14
First Quarter
Aug 20
Full

Hourly Weather History & Observations

Time (EDT) Temp. Dew Point Humidity Pressure Visibility Wind Dir Wind Speed Gust Speed Precip Events Conditions
12:53 AM 75.0 °F 63.0 °F 66% 29.74 in 10.0 mi West 4.6 mph - N/A   Partly Cloudy
1:53 AM 73.0 °F 62.1 °F 68% 29.72 in 10.0 mi North 6.9 mph - N/A   Clear
2:53 AM 71.1 °F 63.0 °F 75% 29.74 in 10.0 mi South 6.9 mph - N/A   Partly Cloudy
3:53 AM 69.1 °F 63.0 °F 81% 29.74 in 10.0 mi SW 6.9 mph - N/A   Clear
4:53 AM 69.1 °F 64.0 °F 84% 29.74 in 10.0 mi SSW 4.6 mph - N/A   Clear
5:53 AM 69.1 °F 63.0 °F 81% 29.75 in 10.0 mi SW 6.9 mph - N/A   Partly Cloudy
6:53 AM 70.0 °F 64.0 °F 81% 29.78 in 10.0 mi WSW 6.9 mph - N/A   Overcast
7:44 AM 69.8 °F 64.4 °F 83% 29.79 in 10.0 mi West 8.1 mph - N/A   Overcast
7:53 AM 70.0 °F 64.0 °F 81% 29.80 in 10.0 mi WNW 6.9 mph - N/A   Overcast
8:19 AM 71.6 °F 64.4 °F 78% 29.80 in 10.0 mi West 5.8 mph - N/A   Scattered Clouds
8:53 AM 72.0 °F 64.9 °F 78% 29.83 in 10.0 mi West 10.4 mph - N/A   Mostly Cloudy
9:53 AM 75.0 °F 64.9 °F 71% 29.82 in 10.0 mi NNW 10.4 mph - N/A   Partly Cloudy
10:53 AM 75.0 °F 62.1 °F 64% 29.86 in 10.0 mi NW 8.1 mph - N/A   Mostly Cloudy
11:53 AM 75.9 °F 59.0 °F 56% 29.86 in 10.0 mi NW 12.7 mph - N/A   Scattered Clouds
12:53 PM 77.0 °F 55.9 °F 48% 29.86 in 10.0 mi NNW 9.2 mph 19.6 mph N/A   Scattered Clouds
1:53 PM 79.0 °F 57.9 °F 48% 29.86 in 10.0 mi NW 11.5 mph - N/A   Partly Cloudy
2:53 PM 78.1 °F 57.0 °F 48% 29.87 in 10.0 mi WNW 9.2 mph - N/A   Scattered Clouds
3:53 PM 77.0 °F 57.0 °F 50% 29.87 in 10.0 mi NNW 11.5 mph - N/A   Scattered Clouds
4:53 PM 79.0 °F 55.9 °F 45% 29.88 in 10.0 mi NNW 11.5 mph - N/A   Clear
5:53 PM 79.0 °F 54.0 °F 42% 29.87 in 10.0 mi NW 16.1 mph - N/A   Clear
6:53 PM 77.0 °F 54.0 °F 45% 29.88 in 10.0 mi North 12.7 mph - N/A   Partly Cloudy
7:53 PM 75.0 °F 55.0 °F 50% 29.91 in 10.0 mi North 10.4 mph - N/A   Clear
8:53 PM 71.1 °F 55.0 °F 57% 29.93 in 10.0 mi North 4.6 mph - N/A   Clear
9:53 PM 69.1 °F 55.9 °F 63% 29.96 in 10.0 mi North 5.8 mph - N/A   Clear
10:53 PM 68.0 °F 55.0 °F 63% 29.97 in 10.0 mi NE 6.9 mph - N/A   Clear
11:53 PM 66.0 °F 54.0 °F 65% 29.99 in 10.0 mi NE 8.1 mph - N/A   Clear